#timestamp,LO_Frequency,Hit 
1499871615.9,286045504.0,N
1499871635.7,286045504.5,N
1499871655.6,286045506.8,N
1499871675.4,286045503.7,N
1499871695.2,286045504.1,N
1499871715.1,286045503.8,N
1499871716.0,286045503.8,N
1499871735.8,286045505.9,N
1499871755.6,286045507.9,N
1499871775.5,286045505.9,N
1499871795.3,286045506.7,N
1499871815.2,286045504.8,N
1499871835.9,286045504.8,N
1499871855.7,286045504.9,N
1499871875.6,286045506.5,N
1499871895.4,286045506.7,N
1499871915.2,286045507.9,N
1499871935.1,286045508.3,N
1499871936.0,286045508.3,N
1499871955.8,286045508.1,N
1499871975.7,286045506.9,N
1499871995.5,286045507.3,N
1499872015.3,286045509.9,N
1499872035.2,286045511.2,N
1499872055.0,286045510.0,N
1499872055.9,286045510.0,N
1499872075.7,286045509.1,N
1499872095.6,286045507.7,N
1499872115.4,286045508.1,N
1499872135.3,286045505.4,N
1499872155.1,286045507.1,N
1499872156.0,286045507.1,N
1499872175.8,286045508.4,N
1499872195.7,286045507.2,N
1499872215.5,286045509.8,N
1499872235.3,286045506.9,N
1499872255.2,286045506.9,N
1499872275.0,286045510.0,N
1499872275.9,286045510.0,N
1499872295.8,286045507.9,N
1499872315.6,286045509.5,N
1499872335.4,286045509.4,N
1499872355.3,286045509.9,N
1499872375.1,286045509.4,N
1499872395.9,286045507.3,N
1499872415.7,286045509.2,N
1499872435.5,286045510.0,N
1499872455.4,286045507.5,N
1499872475.2,286045508.4,N
1499872495.0,286045506.7,N
1499872495.9,286045506.7,N
1499872515.8,286045502.5,N
1499872535.6,286045504.6,N
1499872555.5,286045502.5,N
1499872575.3,286045502.9,N
1499872595.1,286045504.8,N
1499872615.9,286045502.8,N
1499872635.7,286045506.8,N
1499872655.5,286045505.8,N
1499872675.4,286045507.4,N
1499872695.2,286045507.8,N
1499872715.1,286045505.8,N
1499872716.0,286045505.8,N
1499872735.8,286045508.4,N
1499872755.6,286045508.2,N
1499872775.5,286045509.1,N
1499872795.3,286045507.6,N
1499872815.2,286045505.9,N
1499872835.9,286045505.8,N
1499872855.7,286045505.6,N
1499872875.6,286045505.5,N
1499872895.4,286045506.7,N
1499872915.2,286045508.0,N
1499872935.1,286045506.6,N
1499872936.0,286045506.6,N
1499872955.8,286045507.8,N
1499872975.7,286045507.7,N
1499872995.5,286045507.6,N
1499873015.3,286045507.3,N
1499873035.2,286045509.3,N
1499873055.0,286045509.6,N
1499873055.9,286045509.6,N
1499873075.7,286045508.0,N
1499873095.6,286045505.5,N
1499873115.4,286045506.7,N
1499873135.3,286045502.1,N
1499873155.1,286045504.8,N
1499873156.0,286045504.8,N
1499873175.8,286045506.5,N
1499873195.7,286045505.9,N
1499873215.5,286045504.8,N
1499873235.3,286045505.0,N
1499873255.2,286045501.0,N
1499873275.0,286045503.4,N
1499873275.9,286045503.4,N
1499873295.8,286045503.3,N
1499873315.6,286045504.8,N
1499873335.4,286045502.2,N
1499873355.3,286045502.5,N
1499873375.1,286045504.3,N
1499873395.8,286045504.8,N
1499873415.7,286045508.3,N
1499873435.5,286045508.9,N
1499873455.4,286045507.6,N
1499873475.2,286045509.7,N
1499873495.0,286045509.0,N
1499873495.9,286045509.0,N
1499873515.8,286045509.5,N
1499873535.6,286045505.7,N
1499873555.4,286045507.5,N
1499873575.3,286045507.2,N
1499873595.1,286045506.7,N
1499873615.9,286045503.7,N
1499873635.7,286045506.2,N
1499873655.5,286045507.1,N
1499873675.4,286045508.2,N
1499873695.2,286045505.5,N
1499873715.0,286045507.0,N
1499873715.9,286045507.0,N
1499873735.8,286045505.7,N
1499873755.6,286045506.4,N
1499873775.5,286045508.1,N
1499873795.3,286045506.9,N
1499873815.1,286045509.0,N
1499873835.9,286045508.0,N
1499873855.7,286045509.5,N
1499873875.5,286045510.0,N
1499873895.4,286045505.3,N
1499873915.2,286045509.0,N
1499873935.0,286045509.2,N
1499873936.0,286045509.2,N
1499873955.8,286045507.4,N
1499873975.6,286045507.8,N
1499873995.5,286045506.5,N
1499874015.3,286045503.7,N
1499874035.1,286045505.1,N
1499874055.9,286045504.5,N
1499874075.7,286045506.3,N
1499874095.5,286045505.8,N
1499874115.4,286045505.9,N
1499874135.2,286045505.9,N
1499874155.1,286045507.1,N
1499874156.0,286045507.1,N
1499874175.8,286045507.4,N
1499874195.6,286045505.5,N
1499874215.5,286045509.8,N
1499874235.3,286045506.9,N
1499874255.1,286045507.0,N
1499874275.9,286045507.8,N
1499874295.7,286045505.7,N
1499874315.6,286045507.5,N
1499874335.4,286045508.7,N
1499874355.2,286045511.5,N
1499874375.1,286045508.7,N
1499874376.0,286045508.7,N
1499874395.8,286045511.1,N
1499874415.6,286045508.5,N
1499874435.5,286045508.5,N
1499874455.3,286045509.6,N
1499874475.2,286045510.8,N
1499874495.9,286045510.3,N
1499874515.7,286045507.1,N
1499874535.6,286045505.8,N
1499874555.4,286045507.3,N
1499874575.2,286045509.6,N
1499874595.1,286045507.2,N
1499874596.0,286045507.2,N
1499874615.8,286045508.1,N
1499874635.7,286045507.0,N
1499874655.5,286045507.8,N
1499874675.3,286045507.7,N
1499874695.2,286045507.4,N
1499874715.0,286045507.0,N
1499874715.9,286045507.0,N
1499874735.7,286045509.1,N
1499874755.6,286045506.9,N
1499874775.4,286045507.2,N
1499874795.3,286045507.7,N
1499874815.1,286045503.8,N
1499874835.8,286045503.9,N
1499874855.7,286045504.1,N
1499874875.5,286045503.9,N
1499874895.3,286045502.2,N
1499874915.2,286045502.3,N
1499874935.0,286045504.7,N
1499874935.9,286045504.7,N
1499874955.8,286045506.3,N
1499874975.6,286045505.3,N
1499874995.4,286045508.4,N
1499875015.3,286045505.9,N
1499875035.1,286045504.3,N
1499875055.8,286045505.6,N
1499875075.7,286045508.2,N
1499875095.5,286045507.6,N
1499875115.4,286045509.1,N
1499875135.2,286045508.8,N
1499875155.0,286045511.2,N
1499875155.9,286045511.2,N
1499875175.8,286045508.5,N
1499875195.6,286045512.9,N
